Theta_e
309 307 309 308 307 310 312 313 313 309 309 310 310 310 308 307 306 307 306 305 305 304 303 302 299 299 298 298 301 303 303 303 302 304 303 304 304 309 310 309 308 306 306 305
309 309 308 307 308 311 311 311 310 308 307 309 307 308 308 305 304 304 305 304 304 303 301 298 298 299 297 299 302 303 303 302 303 303 303 303 305 308 310 311 309 307 306 305
310 311 308 310 310 311 310 310 308 311 307 306 305 310 309 307 308 307 305 303 303 304 302 298 298 298 297 300 302 303 303 302 304 303 303 303 307 309 310 311 309 306 306 307
310 308 310 310 311 310 313 308 308 309 308 310 305 315 309 306 305 307 308 304 303 302 300 298 297 296 298 300 303 303 302 302 304 304 303 304 304 306 309 313 311 307 308 308
310 309 310 311 311 308 311 307 308 308 309 309 307 308 311 304 307 308 308 305 302 301 300 297 296 296 298 300 304 303 302 302 304 304 304 305 305 308 310 312 313 311 311 311
307 306 307 308 306 306 306 308 307 306 308 310 306 308 315 306 306 305 307 305 302 299 297 296 296 296 299 300 304 303 302 302 304 303 305 305 306 308 311 313 311 315 317 317
308 308 306 306 307 307 306 307 313 312 311 316 308 309 313 308 304 304 305 305 302 298 296 295 294 295 299 300 303 304 303 303 303 303 304 305 307 307 308 312 314 314 316 319
308 307 306 305 307 308 306 307 313 315 313 309 308 312 313 306 305 304 304 304 302 298 296 295 293 295 299 300 303 304 303 301 302 303 304 305 307 307 309 310 311 314 316 318
308 308 305 306 305 306 307 308 305 307 298 307 308 307 305 303 303 306 304 303 302 299 296 295 293 295 299 300 302 303 303 301 301 303 304 304 307 308 306 311 312 312 315 316
308 312 306 306 305 305 306 303 308 305 309 310 309 307 311 307 306 301 304 303 302 299 296 294 292 294 298 300 302 303 303 302 302 303 303 303 305 308 307 309 311 312 312 315
305 309 308 306 307 307 305 306 305 305 306 310 310 313 304 306 305 304 302 302 301 299 296 294 292 293 298 300 301 302 303 303 302 302 302 302 304 307 308 310 309 311 313 314
306 307 307 307 305 303 304 305 304 309 308 305 306 310 305 303 303 304 303 302 300 298 296 293 291 292 296 299 300 301 302 303 302 302 301 301 301 304 306 307 308 307 309 310
306 302 301 306 305 302 305 304 304 303 304 306 310 311 304 302 303 302 302 300 300 298 295 293 290 291 295 297 300 301 300 302 303 302 301 302 302 301 301 303 304 305 306 307
307 306 309 313 313 305 306 305 304 305 305 308 306 309 308 306 305 304 302 300 299 298 296 293 291 291 294 297 299 301 300 301 302 300 301 302 304 303 302 303 303 304 305 306
306 304 305 307 305 306 307 306 305 306 308 309 310 307 310 310 306 304 300 300 300 299 296 295 293 291 292 295 298 300 300 299 300 299 299 300 301 303 304 305 305 305 306 306
306 309 303 304 304 304 303 305 305 306 307 305 306 307 307 305 303 301 301 300 300 300 299 297 294 292 291 294 297 299 301 299 299 299 298 297 298 300 302 303 305 305 305 303
307 305 310 307 304 302 311 308 304 304 302 307 308 309 305 307 303 302 302 301 300 299 299 298 296 294 293 293 296 298 301 299 299 299 297 296 296 297 298 299 301 302 301 300
308 307 310 305 303 321 314 303 305 308 307 304 305 306 306 305 304 303 301 303 301 300 299 299 297 295 294 293 295 299 301 300 298 299 298 297 296 295 295 296 296 297 297 298
308 310 314 315 313 311 312 303 305 308 311 307 306 308 308 303 304 303 300 299 300 299 298 297 298 297 295 294 295 297 298 300 297 298 298 298 297 296 294 294 293 293 293 293
308 310 314 310 318 316 310 303 301 306 313 308 308 309 307 302 307 303 301 299 298 297 298 298 298 297 295 294 294 295 296 297 296 298 300 300 298 297 295 294 292 291 291 290
309 310 313 311 314 305 304 300 301 310 314 304 305 306 302 304 304 300 299 299 297 297 298 299 298 296 295 294 294 294 295 295 300 300 300 299 298 297 296 294 293 291 290 289
312 313 312 313 314 314 298 301 309 306 300 298 302 302 301 300 300 300 298 297 296 296 296 298 297 296 295 294 293 294 294 296 298 300 300 299 297 296 295 294 293 291 290 289
304 297 301 310 311 303 297 299 298 297 297 296 299 299 300 299 298 298 297 296 295 294 294 296 296 295 295 294 294 293 294 295 296 296 298 299 298 296 294 292 291 290 289 289
294 294 295 299 300 297 298 296 296 299 299 297 297 297 297 298 297 296 296 295 294 293 293 294 294 294 293 293 293 294 294 294 295 294 294 295 296 294 293 292 291 290 288 288
291 291 295 295 296 296 296 294 295 296 298 299 297 297 297 296 296 297 295 294 293 293 293 293 293 293 294 294 294 294 294 294 294 293 293 293 293 293 292 291 291 290 290 290
291 293 298 297 295 293 294 293 294 292 293 291 295 302 297 295 294 294 293 292 292 291 291 291 292 292 294 294 294 294 293 293 294 292 292 292 291 291 291 289 289 290 290 290
Wind_Speed
0 3 6 8 5 4 5 2 4 4 1 3 7 14 21 13 10 15 12 10 10 9 3 8 9 4 5 8 13 18 22 19 18 19 19 17 18 21 17 14 12 9 9 8
3 6 4 6 4 3 2 0 5 4 0 1 6 22 21 7 5 6 9 9 10 6 5 7 7 2 5 9 13 19 20 18 16 17 19 15 19 15 16 14 9 5 6 6
6 1 4 5 4 4 2 4 3 4 6 1 7 9 5 1 3 3 5 5 5 10 8 6 6 2 4 8 14 19 17 16 16 18 18 17 14 16 14 16 5 3 6 6
4 2 4 2 3 5 2 2 3 1 4 3 4 6 8 3 7 3 2 3 5 7 5 5 6 3 3 6 11 16 14 14 15 15 17 15 11 9 12 14 5 3 4 5
4 7 4 3 4 6 3 3 3 2 2 3 2 2 8 4 4 2 4 3 4 6 8 7 7 4 1 5 10 15 14 13 13 14 14 16 17 15 16 16 9 8 8 8
2 0 3 4 3 2 7 4 4 3 2 2 2 3 6 3 4 2 2 4 6 6 7 6 7 4 2 3 8 13 14 12 12 13 13 14 14 14 17 18 17 10 12 12
1 2 2 3 5 3 3 4 3 4 2 5 2 1 10 5 6 4 7 8 7 6 7 7 6 5 3 2 7 10 13 12 11 12 12 12 11 13 14 13 15 17 14 21
7 4 8 5 5 6 5 6 5 6 2 4 3 6 6 5 1 4 2 6 7 7 6 7 7 7 5 2 4 7 11 11 10 11 11 10 10 13 14 13 12 15 16 17
6 3 1 1 2 3 6 5 3 6 2 2 4 7 9 4 5 2 6 5 8 8 7 7 7 9 6 3 1 5 8 9 8 9 8 9 9 10 14 14 12 13 13 15
7 3 1 1 2 2 3 4 3 2 3 4 4 5 5 3 6 8 7 8 7 7 7 7 7 11 8 4 2 2 6 7 6 6 6 7 8 8 10 14 14 11 13 14
6 4 1 3 6 8 3 3 2 2 4 5 1 5 6 4 3 8 9 8 9 9 8 7 7 13 10 7 4 2 5 4 4 6 7 6 8 8 8 11 13 14 13 14
5 5 4 6 1 2 3 7 8 4 5 2 2 6 1 4 3 3 6 8 7 8 8 8 9 14 13 11 7 5 5 5 3 4 8 7 10 11 12 11 11 13 17 17
9 2 3 5 3 2 5 6 4 3 2 6 6 5 1 3 4 4 5 6 7 7 7 7 6 10 15 15 12 9 7 7 3 3 8 10 10 12 14 14 14 14 15 17
4 4 7 9 5 6 7 8 10 6 3 4 6 6 5 5 5 4 5 6 6 7 8 7 6 8 17 19 17 14 10 9 8 5 7 12 11 12 14 17 18 19 21 23
3 6 5 3 2 3 5 7 16 18 17 8 4 13 15 13 7 7 7 6 6 8 9 11 11 10 16 21 21 18 14 12 12 10 9 12 14 16 17 19 21 22 23 23
1 1 3 2 3 1 4 8 12 16 13 10 14 22 11 12 3 4 7 7 8 9 12 13 12 11 17 22 27 25 21 17 16 14 13 13 15 17 17 20 21 23 23 23
4 4 3 4 2 3 9 15 12 7 7 15 15 21 5 2 6 8 8 8 9 10 11 12 15 16 23 28 33 31 29 22 20 18 16 14 14 16 17 19 21 22 23 24
7 6 1 2 1 7 6 1 10 22 14 17 8 13 8 6 4 5 6 6 9 9 11 11 10 16 23 29 34 35 32 28 26 23 20 18 16 15 15 16 18 21 22 22
9 9 4 5 5 8 4 5 8 10 13 19 20 25 11 5 2 6 7 6 6 7 7 9 19 21 23 31 36 37 34 33 30 29 27 25 22 20 17 17 16 17 19 21
10 10 8 3 5 10 3 4 1 5 8 10 22 25 8 7 4 4 4 1 4 6 9 10 13 18 24 28 34 33 33 35 35 36 34 30 27 25 24 21 19 18 19 19
6 5 11 6 4 7 6 4 3 5 5 5 7 8 8 7 4 5 3 3 3 3 6 6 7 16 23 27 34 31 31 33 44 41 38 34 33 31 28 26 24 22 19 18
8 8 5 5 5 9 5 5 7 2 7 5 2 4 7 4 6 2 2 4 4 6 7 5 5 11 16 24 31 28 31 39 41 43 41 37 36 34 33 31 29 27 24 21
3 5 5 4 5 5 4 7 11 8 4 6 2 1 6 6 4 2 3 5 6 5 8 7 6 6 12 22 30 25 30 33 39 40 42 42 39 38 36 35 34 31 30 30
8 3 5 10 8 17 14 20 21 22 12 7 4 2 1 2 4 4 2 4 4 5 6 5 4 5 9 19 27 31 27 32 36 36 36 39 40 40 40 38 37 36 36 33
6 11 4 10 7 12 12 21 22 20 19 13 7 5 4 4 4 4 4 5 5 6 10 10 7 8 10 12 22 26 27 28 34 33 31 33 35 38 38 42 42 42 43 44
5 4 2 3 8 2 12 17 15 16 17 20 19 7 4 5 5 5 5 5 5 9 15 15 14 12 14 12 16 22 26 30 33 29 29 32 31 31 32 31 33 40 42 42
Wind_Direction
336 126 203 209 189 146 127 170 264 266 339 288 254 277 280 274 229 246 239 227 225 219 228 206 188 224 309 336 341 342 342 345 350 349 336 331 332 341 341 330 323 291 250 231
65 223 203 114 145 158 142 209 273 278 319 252 321 293 283 282 245 232 242 236 224 171 171 170 175 228 324 347 343 343 344 347 353 350 337 323 327 340 339 339 317 263 224 202
168 177 134 141 136 139 186 179 231 247 320 69 321 290 324 276 276 239 257 252 208 190 174 172 174 214 335 357 349 344 343 353 1 358 355 350 1 357 356 342 340 212 198 197
222 149 153 146 169 137 248 189 161 20 31 274 15 284 305 316 304 256 264 230 198 164 146 141 169 176 352 358 354 349 348 358 7 10 1 6 342 336 351 3 27 99 141 144
215 156 157 164 207 167 196 127 120 99 88 357 335 72 269 343 314 242 215 195 174 173 154 158 170 164 52 6 6 353 358 12 15 16 14 17 19 20 24 26 55 88 109 118
99 311 168 172 75 88 148 94 58 61 81 345 220 141 282 229 208 204 185 194 169 164 154 154 169 157 124 25 17 2 6 18 20 25 27 28 37 32 42 37 23 54 97 113
45 218 151 134 88 37 99 88 334 341 11 227 119 52 249 246 217 195 186 201 191 182 170 165 181 183 149 36 27 17 11 15 23 36 34 36 48 53 55 59 58 65 89 104
163 271 167 188 198 173 177 166 167 226 226 286 54 234 252 206 269 211 201 199 180 187 191 179 189 190 170 100 31 31 11 3 16 38 38 49 53 70 75 70 81 85 94 114
156 256 74 74 146 144 180 192 163 108 62 33 226 275 285 231 256 179 188 187 202 199 195 186 184 196 186 143 20 36 21 10 25 50 50 51 67 75 83 89 91 105 114 117
197 108 326 151 115 35 161 166 95 358 186 251 274 277 245 268 239 207 207 214 213 206 198 192 185 195 193 179 192 63 54 24 31 69 74 69 77 89 91 100 99 109 115 126
143 112 302 129 212 175 136 204 72 125 171 180 260 261 213 248 263 207 212 205 200 203 200 194 189 196 190 189 195 189 95 56 32 77 91 101 107 115 116 118 117 117 128 135
184 114 165 200 277 196 188 191 178 156 209 241 142 273 214 249 318 209 211 211 208 204 199 195 185 188 194 197 195 197 145 114 51 90 112 116 118 128 129 131 135 136 140 145
180 205 80 356 348 355 212 199 188 119 93 199 152 253 224 228 257 239 228 228 215 202 200 199 181 190 195 198 198 196 176 145 139 109 116 124 131 132 133 137 141 144 144 142
139 160 174 187 189 136 191 195 184 163 150 187 222 258 239 205 206 174 228 236 213 202 198 200 198 198 200 199 198 198 192 169 163 157 131 122 122 121 123 131 136 135 133 132
205 201 171 227 141 167 203 180 187 203 211 196 234 218 249 265 232 216 197 181 187 201 203 208 207 200 199 202 201 202 200 181 170 166 153 136 129 126 127 128 128 128 129 128
266 266 108 284 163 260 287 228 198 213 227 270 268 277 248 253 232 161 197 194 213 213 214 210 208 191 197 200 200 199 200 190 177 173 167 155 144 140 138 134 134 134 134 134
168 154 121 261 111 107 283 213 192 190 195 207 222 239 203 248 206 228 232 229 231 229 222 214 206 201 199 197 198 198 197 192 183 183 178 171 161 153 150 147 147 145 145 146
170 160 227 182 130 213 260 15 195 204 205 210 239 247 204 204 190 194 217 227 255 248 236 230 207 202 200 198 199 198 196 195 191 189 187 181 177 171 166 164 161 157 157 159
178 177 182 190 212 307 233 195 158 171 242 216 221 244 216 154 138 277 225 202 245 259 255 241 217 210 194 195 197 196 194 197 199 196 195 191 187 182 181 182 180 176 173 172
188 206 202 155 201 211 269 337 140 119 266 222 207 233 175 137 199 246 174 175 271 284 273 277 244 217 196 196 190 187 191 194 200 203 201 197 194 193 192 192 194 193 190 188
179 190 209 197 224 280 241 156 167 130 260 343 207 216 150 172 177 148 161 210 249 267 289 299 236 204 204 198 188 189 193 197 204 207 205 203 200 200 200 196 198 201 202 200
175 179 182 204 211 263 157 77 170 287 329 350 350 170 144 140 127 123 259 250 272 296 309 308 237 218 210 202 189 194 201 205 206 208 208 208 207 206 203 201 200 200 202 205
76 41 299 209 199 11 291 26 6 344 338 340 32 1 159 130 152 164 297 324 316 305 303 299 281 253 211 205 204 200 210 205 207 207 210 212 212 211 211 205 203 200 203 203
346 17 331 331 16 346 30 5 360 343 311 320 12 75 55 345 340 308 283 301 310 323 333 331 300 262 242 221 216 223 215 209 208 205 208 211 212 212 213 213 213 207 204 204
280 310 290 284 299 329 7 3 347 343 339 322 298 289 289 300 328 308 334 341 332 345 357 353 316 289 268 246 236 230 221 210 207 207 207 208 210 211 211 214 213 213 219 215
189 226 292 295 8 320 307 324 335 350 342 335 326 297 19 42 9 338 341 338 359 354 350 350 341 322 303 287 258 247 231 218 207 201 203 203 204 210 211 211 218 225 229 229